Year,Month,Day,Hour,Minute,Value (Times are PST for temperature in C)
2015,06,17,00,00,15.90
2015,06,17,00,01,15.90
2015,06,17,00,02,15.90
2015,06,17,00,03,15.80
2015,06,17,00,04,15.80
2015,06,17,00,05,15.80
2015,06,17,00,06,15.80
2015,06,17,00,07,15.80
2015,06,17,00,08,15.80
2015,06,17,00,09,15.80
2015,06,17,00,10,15.80
2015,06,17,00,11,15.70
2015,06,17,00,12,15.70
2015,06,17,00,13,15.70
2015,06,17,00,14,15.70
2015,06,17,00,15,15.70
2015,06,17,00,16,15.60
2015,06,17,00,17,15.60
2015,06,17,00,18,15.60
2015,06,17,00,19,15.60
2015,06,17,00,20,15.60
2015,06,17,00,21,15.60
2015,06,17,00,22,15.50
2015,06,17,00,23,15.50
2015,06,17,00,24,15.50
2015,06,17,00,25,15.50
2015,06,17,00,26,15.50
2015,06,17,00,27,15.40
2015,06,17,00,28,15.40
2015,06,17,00,29,15.40
2015,06,17,00,30,15.40
2015,06,17,00,31,15.40
2015,06,17,00,32,15.40
2015,06,17,00,33,15.40
2015,06,17,00,34,15.40
2015,06,17,00,35,15.40
2015,06,17,00,36,15.30
2015,06,17,00,37,15.30
2015,06,17,00,38,15.30
2015,06,17,00,39,15.30
2015,06,17,00,40,15.30
2015,06,17,00,41,15.30
2015,06,17,00,42,15.30
2015,06,17,00,43,15.30
2015,06,17,00,44,15.20
2015,06,17,00,45,15.20
2015,06,17,00,46,15.20
2015,06,17,00,47,15.20
2015,06,17,00,48,15.10
2015,06,17,00,49,15.10
2015,06,17,00,50,15.10
2015,06,17,00,51,15.00
2015,06,17,00,52,15.00
2015,06,17,00,53,15.00
2015,06,17,00,54,15.00
2015,06,17,00,55,15.00
2015,06,17,00,56,15.00
2015,06,17,00,57,15.00
2015,06,17,00,58,15.00
2015,06,17,00,59,15.00
2015,06,17,01,00,15.00
2015,06,17,01,01,15.00
2015,06,17,01,02,15.00
2015,06,17,01,03,15.00
2015,06,17,01,04,15.00
2015,06,17,01,05,15.00
2015,06,17,01,06,15.00
2015,06,17,01,07,15.00
2015,06,17,01,08,15.00
2015,06,17,01,09,15.00
2015,06,17,01,10,15.00
2015,06,17,01,11,15.00
2015,06,17,01,12,15.00
2015,06,17,01,13,15.00
2015,06,17,01,14,15.00
2015,06,17,01,15,15.00
2015,06,17,01,16,15.00
2015,06,17,01,17,15.00
2015,06,17,01,18,15.00
2015,06,17,01,19,15.00
2015,06,17,01,20,14.90
2015,06,17,01,21,14.90
2015,06,17,01,22,14.90
2015,06,17,01,23,14.90
2015,06,17,01,24,14.80
2015,06,17,01,25,14.80
2015,06,17,01,26,14.80
2015,06,17,01,27,14.80
2015,06,17,01,28,14.70
2015,06,17,01,29,14.70
2015,06,17,01,30,14.70
2015,06,17,01,31,14.70
2015,06,17,01,32,14.70
2015,06,17,01,33,14.70
2015,06,17,01,34,14.70
2015,06,17,01,35,14.70
2015,06,17,01,36,14.70
2015,06,17,01,37,14.60
2015,06,17,01,38,14.60
2015,06,17,01,39,14.60
2015,06,17,01,40,14.60
2015,06,17,01,41,14.60
2015,06,17,01,42,14.50
2015,06,17,01,43,14.50
2015,06,17,01,44,14.50
2015,06,17,01,45,14.50
2015,06,17,01,46,14.40
2015,06,17,01,47,14.40
2015,06,17,01,48,14.40
2015,06,17,01,49,14.40
2015,06,17,01,50,14.40
2015,06,17,01,51,14.40
2015,06,17,01,52,14.30
2015,06,17,01,53,14.30
2015,06,17,01,54,14.30
2015,06,17,01,55,14.30
2015,06,17,01,56,14.30
2015,06,17,01,57,14.30
2015,06,17,01,58,14.30
2015,06,17,01,59,14.30
2015,06,17,02,00,14.30
2015,06,17,02,01,14.30
2015,06,17,02,02,14.30
2015,06,17,02,03,14.30
2015,06,17,02,04,14.30
2015,06,17,02,05,14.30
2015,06,17,02,06,14.30
2015,06,17,02,07,14.30
2015,06,17,02,08,14.20
2015,06,17,02,09,14.20
2015,06,17,02,10,14.20
2015,06,17,02,11,14.20
2015,06,17,02,12,14.20
2015,06,17,02,13,14.20
2015,06,17,02,14,14.10
2015,06,17,02,15,14.10
2015,06,17,02,16,14.10
2015,06,17,02,17,14.10
2015,06,17,02,18,14.10
2015,06,17,02,19,14.00
2015,06,17,02,20,14.00
2015,06,17,02,21,14.00
2015,06,17,02,22,14.00
2015,06,17,02,23,13.90
2015,06,17,02,24,13.90
2015,06,17,02,25,13.90
2015,06,17,02,26,13.90
2015,06,17,02,27,13.90
2015,06,17,02,28,13.90
2015,06,17,02,29,13.80
2015,06,17,02,30,13.80
2015,06,17,02,31,13.80
2015,06,17,02,32,13.80
2015,06,17,02,33,13.80
2015,06,17,02,34,13.80
2015,06,17,02,35,13.80
2015,06,17,02,36,13.70
2015,06,17,02,37,13.70
2015,06,17,02,38,13.70
2015,06,17,02,39,13.70
2015,06,17,02,40,13.70
2015,06,17,02,41,13.70
2015,06,17,02,42,13.70
2015,06,17,02,43,13.60
2015,06,17,02,44,13.60
2015,06,17,02,45,13.60
2015,06,17,02,46,13.60
2015,06,17,02,47,13.50
2015,06,17,02,48,13.50
2015,06,17,02,49,13.50
2015,06,17,02,50,13.40
2015,06,17,02,51,13.40
2015,06,17,02,52,13.40
2015,06,17,02,53,13.40
2015,06,17,02,54,13.40
2015,06,17,02,55,13.30
2015,06,17,02,56,13.30
2015,06,17,02,57,13.30
2015,06,17,02,58,13.30
2015,06,17,02,59,13.30
2015,06,17,03,00,13.30
2015,06,17,03,01,13.30
2015,06,17,03,02,13.20
2015,06,17,03,03,13.20
2015,06,17,03,04,13.20
2015,06,17,03,05,13.20
2015,06,17,03,06,13.20
2015,06,17,03,07,13.20
2015,06,17,03,08,13.20
2015,06,17,03,09,13.20
2015,06,17,03,10,13.10
2015,06,17,03,11,13.10
2015,06,17,03,12,13.10
2015,06,17,03,13,13.10
2015,06,17,03,14,13.10
2015,06,17,03,15,13.10
2015,06,17,03,16,13.10
2015,06,17,03,17,13.10
2015,06,17,03,18,13.00
2015,06,17,03,19,13.00
2015,06,17,03,20,13.00
2015,06,17,03,21,12.90
2015,06,17,03,22,12.90
2015,06,17,03,23,12.90
2015,06,17,03,24,12.90
2015,06,17,03,25,12.80
2015,06,17,03,26,12.80
2015,06,17,03,27,12.80
2015,06,17,03,28,12.80
2015,06,17,03,29,12.80
2015,06,17,03,30,12.80
2015,06,17,03,31,12.80
2015,06,17,03,32,12.80
2015,06,17,03,33,12.70
2015,06,17,03,34,12.70
2015,06,17,03,35,12.70
2015,06,17,03,36,12.70
2015,06,17,03,37,12.70
2015,06,17,03,38,12.60
2015,06,17,03,39,12.60
2015,06,17,03,40,12.60
2015,06,17,03,41,12.60
2015,06,17,03,42,12.60
2015,06,17,03,43,12.60
2015,06,17,03,44,12.60
2015,06,17,03,45,12.50
2015,06,17,03,46,12.50
2015,06,17,03,47,12.40
2015,06,17,03,48,12.40
2015,06,17,03,49,12.30
2015,06,17,03,50,12.30
2015,06,17,03,51,12.30
2015,06,17,03,52,12.20
2015,06,17,03,53,12.20
2015,06,17,03,54,12.20
2015,06,17,03,55,12.10
2015,06,17,03,56,12.10
2015,06,17,03,57,12.10
2015,06,17,03,58,12.10
2015,06,17,03,59,12.00
2015,06,17,04,00,12.00
2015,06,17,04,01,12.00
2015,06,17,04,02,11.90
2015,06,17,04,03,11.90
2015,06,17,04,04,12.00
2015,06,17,04,05,12.00
2015,06,17,04,06,12.00
2015,06,17,04,07,12.00
2015,06,17,04,08,12.00
2015,06,17,04,09,12.00
2015,06,17,04,10,12.00
2015,06,17,04,11,12.10
2015,06,17,04,12,12.10
2015,06,17,04,13,12.10
2015,06,17,04,14,12.10
2015,06,17,04,15,12.10
2015,06,17,04,16,12.10
2015,06,17,04,17,12.10
2015,06,17,04,18,12.10
2015,06,17,04,19,12.10
2015,06,17,04,20,12.10
2015,06,17,04,21,12.10
2015,06,17,04,22,12.10
2015,06,17,04,23,12.10
2015,06,17,04,24,12.10
2015,06,17,04,25,12.10
2015,06,17,04,26,12.10
2015,06,17,04,27,12.10
2015,06,17,04,28,12.10
2015,06,17,04,29,12.10
2015,06,17,04,30,12.00
2015,06,17,04,31,12.00
2015,06,17,04,32,11.90
2015,06,17,04,33,11.90
2015,06,17,04,34,11.80
2015,06,17,04,35,11.80
2015,06,17,04,36,11.80
2015,06,17,04,37,11.80
2015,06,17,04,38,11.70
2015,06,17,04,39,11.70
2015,06,17,04,40,11.70
2015,06,17,04,41,11.70
2015,06,17,04,42,11.60
2015,06,17,04,43,11.60
2015,06,17,04,44,11.60
2015,06,17,04,45,11.60
2015,06,17,04,46,11.60
2015,06,17,04,47,11.60
2015,06,17,04,48,11.50
2015,06,17,04,49,11.50
2015,06,17,04,50,11.50
2015,06,17,04,51,11.50
2015,06,17,04,52,11.50
2015,06,17,04,53,11.50
2015,06,17,04,54,11.50
2015,06,17,04,55,11.50
2015,06,17,04,56,11.50
2015,06,17,04,57,11.50
2015,06,17,04,58,11.50
2015,06,17,04,59,11.50
2015,06,17,05,00,11.50
2015,06,17,05,01,11.50
2015,06,17,05,02,11.50
2015,06,17,05,03,11.50
2015,06,17,05,04,11.50
2015,06,17,05,05,11.50
2015,06,17,05,06,11.50
2015,06,17,05,07,11.50
2015,06,17,05,08,11.50
2015,06,17,05,09,11.50
2015,06,17,05,10,11.50
2015,06,17,05,11,11.50
2015,06,17,05,12,11.50
2015,06,17,05,13,11.50
2015,06,17,05,14,11.40
2015,06,17,05,15,11.40
2015,06,17,05,16,11.40
2015,06,17,05,17,11.40
2015,06,17,05,18,11.40
2015,06,17,05,19,11.40
2015,06,17,05,20,11.40
2015,06,17,05,21,11.40
2015,06,17,05,22,11.40
2015,06,17,05,23,11.30
2015,06,17,05,24,11.40
2015,06,17,05,25,11.40
2015,06,17,05,26,11.40
2015,06,17,05,27,11.40
2015,06,17,05,28,11.40
2015,06,17,05,29,11.40
2015,06,17,05,30,11.30
2015,06,17,05,31,11.30
2015,06,17,05,32,11.30
2015,06,17,05,33,11.30
2015,06,17,05,34,11.30
2015,06,17,05,35,11.30
2015,06,17,05,36,11.30
2015,06,17,05,37,11.20
2015,06,17,05,38,11.20
2015,06,17,05,39,11.20
2015,06,17,05,40,11.20
2015,06,17,05,41,11.10
2015,06,17,05,42,11.10
2015,06,17,05,43,11.00
2015,06,17,05,44,11.00
2015,06,17,05,45,10.90
2015,06,17,05,46,10.90
2015,06,17,05,47,10.80
2015,06,17,05,48,10.80
2015,06,17,05,49,10.80
2015,06,17,05,50,10.70
2015,06,17,05,51,10.70
2015,06,17,05,52,10.70
2015,06,17,05,53,10.60
2015,06,17,05,54,10.60
2015,06,17,05,55,10.60
2015,06,17,05,56,10.60
2015,06,17,05,57,10.60
2015,06,17,05,58,10.60
2015,06,17,05,59,10.60
2015,06,17,06,00,10.60
2015,06,17,06,01,10.60
2015,06,17,06,02,10.70
2015,06,17,06,03,10.70
2015,06,17,06,04,10.70
2015,06,17,06,05,10.70
2015,06,17,06,06,10.80
2015,06,17,06,07,10.80
2015,06,17,06,08,10.80
2015,06,17,06,09,10.80
2015,06,17,06,10,10.80
2015,06,17,06,11,10.80
2015,06,17,06,12,10.70
2015,06,17,06,13,10.70
2015,06,17,06,14,10.70
2015,06,17,06,15,10.70
2015,06,17,06,16,10.70
2015,06,17,06,17,10.80
2015,06,17,06,18,10.80
2015,06,17,06,19,10.80
2015,06,17,06,20,10.90
2015,06,17,06,21,10.90
2015,06,17,06,22,10.90
2015,06,17,06,23,10.90
2015,06,17,06,24,10.90
2015,06,17,06,25,10.90
2015,06,17,06,26,10.90
2015,06,17,06,27,10.90
2015,06,17,06,28,10.90
2015,06,17,06,29,10.90
2015,06,17,06,30,10.90
2015,06,17,06,31,10.80
2015,06,17,06,32,10.80
2015,06,17,06,33,10.80
2015,06,17,06,34,10.80
2015,06,17,06,35,10.80
2015,06,17,06,36,10.70
2015,06,17,06,37,10.70
2015,06,17,06,38,10.70
2015,06,17,06,39,10.60
2015,06,17,06,40,10.60
2015,06,17,06,41,10.60
2015,06,17,06,42,10.60
2015,06,17,06,43,10.50
2015,06,17,06,44,10.50
2015,06,17,06,45,10.50
2015,06,17,06,46,10.40
2015,06,17,06,47,10.40
2015,06,17,06,48,10.40
2015,06,17,06,49,10.40
2015,06,17,06,50,10.40
2015,06,17,06,51,10.50
2015,06,17,06,52,10.50
2015,06,17,06,53,10.50
2015,06,17,06,54,10.50
2015,06,17,06,55,10.60
2015,06,17,06,56,10.60
2015,06,17,06,57,10.60
2015,06,17,06,58,10.60
2015,06,17,06,59,10.60
2015,06,17,07,00,10.70
2015,06,17,07,01,10.70
2015,06,17,07,02,10.70
2015,06,17,07,03,10.70
2015,06,17,07,04,10.70
2015,06,17,07,05,10.70
2015,06,17,07,06,10.80
2015,06,17,07,07,10.80
2015,06,17,07,08,10.80
2015,06,17,07,09,10.80
2015,06,17,07,10,10.80
2015,06,17,07,11,10.80
2015,06,17,07,12,10.80
2015,06,17,07,13,10.80
2015,06,17,07,14,10.80
2015,06,17,07,15,10.80
2015,06,17,07,16,10.80
2015,06,17,07,17,10.80
2015,06,17,07,18,10.80
2015,06,17,07,19,10.80
2015,06,17,07,20,10.80
2015,06,17,07,21,10.80
2015,06,17,07,22,10.80
2015,06,17,07,23,10.80
2015,06,17,07,24,10.80
2015,06,17,07,25,10.90
2015,06,17,07,26,10.90
2015,06,17,07,27,10.90
2015,06,17,07,28,11.00
2015,06,17,07,29,11.00
2015,06,17,07,30,11.00
2015,06,17,07,31,11.00
2015,06,17,07,32,11.10
2015,06,17,07,33,11.10
2015,06,17,07,34,11.10
2015,06,17,07,35,11.10
2015,06,17,07,36,11.10
2015,06,17,07,37,11.20
2015,06,17,07,38,11.20
2015,06,17,07,39,11.20
2015,06,17,07,40,11.20
2015,06,17,07,41,11.20
2015,06,17,07,42,11.20
2015,06,17,07,43,11.20
2015,06,17,07,44,11.30
2015,06,17,07,45,11.30
2015,06,17,07,46,11.30
2015,06,17,07,47,11.30
2015,06,17,07,48,11.30
2015,06,17,07,49,11.30
2015,06,17,07,50,11.30
2015,06,17,07,51,11.30
2015,06,17,07,52,11.30
2015,06,17,07,53,11.30
2015,06,17,07,54,11.30
2015,06,17,07,55,11.30
2015,06,17,07,56,11.30
2015,06,17,07,57,11.40
2015,06,17,07,58,11.40
2015,06,17,07,59,11.40
2015,06,17,08,00,11.40
2015,06,17,08,01,11.40
2015,06,17,08,02,11.40
2015,06,17,08,03,11.50
2015,06,17,08,04,11.50
2015,06,17,08,05,11.50
2015,06,17,08,06,11.60
2015,06,17,08,07,11.60
2015,06,17,08,08,11.60
2015,06,17,08,09,11.60
2015,06,17,08,10,11.70
2015,06,17,08,11,11.70
2015,06,17,08,12,11.70
2015,06,17,08,13,11.80
2015,06,17,08,14,11.80
2015,06,17,08,15,11.80
2015,06,17,08,16,11.80
2015,06,17,08,17,11.90
2015,06,17,08,18,11.90
2015,06,17,08,19,11.90
2015,06,17,08,20,12.00
2015,06,17,08,21,12.00
2015,06,17,08,22,12.10
2015,06,17,08,23,12.10
2015,06,17,08,24,12.10
2015,06,17,08,25,12.10
2015,06,17,08,26,12.20
2015,06,17,08,27,12.20
2015,06,17,08,28,12.20
2015,06,17,08,29,12.20
2015,06,17,08,30,12.30
2015,06,17,08,31,12.30
2015,06,17,08,32,12.30
2015,06,17,08,33,12.30
2015,06,17,08,34,12.40
2015,06,17,08,35,12.40
2015,06,17,08,36,12.40
2015,06,17,08,37,12.50
2015,06,17,08,38,12.50
2015,06,17,08,39,12.50
2015,06,17,08,40,12.60
2015,06,17,08,41,12.60
2015,06,17,08,42,12.70
2015,06,17,08,43,12.70
2015,06,17,08,44,12.70
2015,06,17,08,45,12.80
2015,06,17,08,46,12.80
2015,06,17,08,47,12.80
2015,06,17,08,48,12.90
2015,06,17,08,49,12.90
2015,06,17,08,50,12.90
2015,06,17,08,51,13.00
2015,06,17,08,52,13.00
2015,06,17,08,53,13.10
2015,06,17,08,54,13.10
2015,06,17,08,55,13.10
2015,06,17,08,56,13.20
2015,06,17,08,57,13.20
2015,06,17,08,58,13.30
2015,06,17,08,59,13.30
2015,06,17,09,00,13.40
2015,06,17,09,01,13.40
2015,06,17,09,02,13.50
2015,06,17,09,03,13.50
2015,06,17,09,04,13.60
2015,06,17,09,05,13.60
2015,06,17,09,06,13.60
2015,06,17,09,07,13.70
2015,06,17,09,08,13.70
2015,06,17,09,09,13.80
2015,06,17,09,10,13.80
2015,06,17,09,11,13.80
2015,06,17,09,12,13.90
2015,06,17,09,13,13.90
2015,06,17,09,14,14.00
2015,06,17,09,15,14.00
2015,06,17,09,16,14.10
2015,06,17,09,17,14.10
2015,06,17,09,18,14.20
2015,06,17,09,19,14.20
2015,06,17,09,20,14.30
2015,06,17,09,21,14.30
2015,06,17,09,22,14.40
2015,06,17,09,23,14.50
2015,06,17,09,24,14.60
2015,06,17,09,25,14.70
2015,06,17,09,26,14.80
2015,06,17,09,27,15.00
2015,06,17,09,28,15.00
2015,06,17,09,29,15.00
2015,06,17,09,30,15.10
2015,06,17,09,31,15.30
2015,06,17,09,32,15.40
2015,06,17,09,33,15.50
2015,06,17,09,34,15.60
2015,06,17,09,35,15.70
2015,06,17,09,36,15.80
2015,06,17,09,37,16.00
2015,06,17,09,38,16.10
2015,06,17,09,39,16.20
2015,06,17,09,40,16.30
2015,06,17,09,41,16.40
2015,06,17,09,42,16.60
2015,06,17,09,43,16.70
2015,06,17,09,44,16.80
2015,06,17,09,45,16.90
2015,06,17,09,46,17.00
2015,06,17,09,47,17.10
2015,06,17,09,48,17.20
2015,06,17,09,49,17.30
2015,06,17,09,50,17.40
2015,06,17,09,51,17.60
2015,06,17,09,52,17.70
2015,06,17,09,53,17.80
2015,06,17,09,54,17.90
2015,06,17,09,55,18.00
2015,06,17,09,56,18.00
2015,06,17,09,57,18.10
2015,06,17,09,58,18.20
2015,06,17,09,59,18.20
2015,06,17,10,00,18.30
2015,06,17,10,01,18.30
2015,06,17,10,02,18.30
2015,06,17,10,03,18.40
2015,06,17,10,04,18.40
2015,06,17,10,05,18.40
2015,06,17,10,06,18.50
2015,06,17,10,07,18.50
2015,06,17,10,08,18.50
2015,06,17,10,09,18.50
2015,06,17,10,10,18.50
2015,06,17,10,11,18.50
2015,06,17,10,12,18.50
2015,06,17,10,13,18.50
2015,06,17,10,14,18.50
2015,06,17,10,15,18.60
2015,06,17,10,16,18.60
2015,06,17,10,17,18.60
2015,06,17,10,18,18.60
2015,06,17,10,19,18.60
2015,06,17,10,20,18.60
2015,06,17,10,21,18.60
2015,06,17,10,22,18.60
2015,06,17,10,23,18.70
2015,06,17,10,24,18.70
2015,06,17,10,25,18.70
2015,06,17,10,26,18.70
2015,06,17,10,27,18.70
2015,06,17,10,28,18.70
2015,06,17,10,29,18.70
2015,06,17,10,30,18.70
2015,06,17,10,31,18.80
2015,06,17,10,32,18.80
2015,06,17,10,33,18.80
2015,06,17,10,34,18.80
2015,06,17,10,35,18.90
2015,06,17,10,36,18.90
2015,06,17,10,37,19.00
2015,06,17,10,38,19.00
2015,06,17,10,39,19.10
2015,06,17,10,40,19.20
2015,06,17,10,41,19.20
2015,06,17,10,42,19.30
2015,06,17,10,43,19.30
2015,06,17,10,44,19.40
2015,06,17,10,45,19.50
2015,06,17,10,46,19.60
2015,06,17,10,47,19.60
2015,06,17,10,48,19.70
2015,06,17,10,49,19.80
2015,06,17,10,50,19.90
2015,06,17,10,51,19.90
2015,06,17,10,52,20.00
2015,06,17,10,53,20.10
2015,06,17,10,54,20.10
2015,06,17,10,55,20.20
2015,06,17,10,56,20.30
2015,06,17,10,57,20.40
2015,06,17,10,58,20.50
2015,06,17,10,59,20.60
2015,06,17,11,00,20.60
2015,06,17,11,01,20.70
2015,06,17,11,02,20.70
2015,06,17,11,03,20.80
2015,06,17,11,04,20.80
2015,06,17,11,05,20.80
2015,06,17,11,06,20.90
2015,06,17,11,07,20.90
2015,06,17,11,08,21.00
2015,06,17,11,09,21.10
2015,06,17,11,10,21.10
2015,06,17,11,11,21.20
2015,06,17,11,12,21.20
2015,06,17,11,13,21.30
2015,06,17,11,14,21.30
2015,06,17,11,15,21.40
2015,06,17,11,16,21.40
2015,06,17,11,17,21.50
2015,06,17,11,18,21.50
2015,06,17,11,19,21.60
2015,06,17,11,20,21.50
2015,06,17,11,21,21.60
2015,06,17,11,22,21.60
2015,06,17,11,23,21.60
2015,06,17,11,24,21.60
2015,06,17,11,25,21.60
2015,06,17,11,26,21.60
2015,06,17,11,27,21.60
2015,06,17,11,28,21.60
2015,06,17,11,29,21.60
2015,06,17,11,30,21.50
2015,06,17,11,31,21.50
2015,06,17,11,32,21.40
2015,06,17,11,33,21.30
2015,06,17,11,34,21.30
2015,06,17,11,35,21.30
2015,06,17,11,36,21.30
2015,06,17,11,37,21.30
2015,06,17,11,38,21.30
2015,06,17,11,39,21.30
2015,06,17,11,40,21.30
2015,06,17,11,41,21.40
2015,06,17,11,42,21.40
2015,06,17,11,43,21.40
2015,06,17,11,44,21.40
2015,06,17,11,45,21.50
2015,06,17,11,46,21.50
2015,06,17,11,47,21.60
2015,06,17,11,48,21.60
2015,06,17,11,49,21.60
2015,06,17,11,50,21.70
2015,06,17,11,51,21.70
2015,06,17,11,52,21.80
2015,06,17,11,53,21.80
2015,06,17,11,54,21.80
2015,06,17,11,55,21.80
2015,06,17,11,56,21.80
2015,06,17,11,57,21.90
2015,06,17,11,58,21.90
2015,06,17,11,59,22.00
2015,06,17,12,00,22.00
2015,06,17,12,01,22.10
2015,06,17,12,02,22.10
2015,06,17,12,03,22.10
2015,06,17,12,04,22.10
2015,06,17,12,05,22.20
2015,06,17,12,06,22.30
2015,06,17,12,07,22.30
2015,06,17,12,08,22.30
2015,06,17,12,09,22.30
2015,06,17,12,10,22.20
2015,06,17,12,11,22.20
2015,06,17,12,12,22.20
2015,06,17,12,13,22.30
2015,06,17,12,14,22.20
2015,06,17,12,15,22.20
2015,06,17,12,16,22.20
2015,06,17,12,17,22.20
2015,06,17,12,18,22.30
2015,06,17,12,19,22.20
2015,06,17,12,20,22.20
2015,06,17,12,21,22.20
2015,06,17,12,22,22.20
2015,06,17,12,23,22.20
2015,06,17,12,24,22.20
2015,06,17,12,25,22.10
2015,06,17,12,26,22.10
2015,06,17,12,27,22.20
2015,06,17,12,28,22.20
2015,06,17,12,29,22.20
2015,06,17,12,30,22.30
2015,06,17,12,31,22.30
2015,06,17,12,32,22.30
2015,06,17,12,33,22.40
2015,06,17,12,34,22.40
2015,06,17,12,35,22.50
2015,06,17,12,36,22.50
2015,06,17,12,37,22.50
2015,06,17,12,38,22.50
2015,06,17,12,39,22.50
2015,06,17,12,40,22.50
2015,06,17,12,41,22.60
2015,06,17,12,42,22.60
2015,06,17,12,43,22.70
2015,06,17,12,44,22.70
2015,06,17,12,45,22.70
2015,06,17,12,46,22.80
2015,06,17,12,47,22.80
2015,06,17,12,48,22.80
2015,06,17,12,49,22.90
2015,06,17,12,50,22.90
2015,06,17,12,51,22.90
2015,06,17,12,52,22.90
2015,06,17,12,53,22.90
2015,06,17,12,54,23.00
2015,06,17,12,55,23.00
2015,06,17,12,56,23.00
2015,06,17,12,57,23.00
2015,06,17,12,58,23.00
2015,06,17,12,59,23.00
2015,06,17,13,00,23.00
2015,06,17,13,01,23.00
2015,06,17,13,02,22.90
2015,06,17,13,03,22.80
2015,06,17,13,04,22.80
2015,06,17,13,05,22.80
2015,06,17,13,06,22.80
2015,06,17,13,07,22.80
2015,06,17,13,08,22.80
2015,06,17,13,09,22.70
2015,06,17,13,10,22.70
2015,06,17,13,11,22.70
2015,06,17,13,12,22.70
2015,06,17,13,13,22.70
2015,06,17,13,14,22.70
2015,06,17,13,15,22.60
2015,06,17,13,16,22.60
2015,06,17,13,17,22.60
2015,06,17,13,18,22.60
2015,06,17,13,19,22.60
2015,06,17,13,20,22.60
2015,06,17,13,21,22.60
2015,06,17,13,22,22.60
2015,06,17,13,23,22.60
2015,06,17,13,24,22.60
2015,06,17,13,25,22.60
2015,06,17,13,26,22.60
2015,06,17,13,27,22.60
2015,06,17,13,28,22.60
2015,06,17,13,29,22.60
2015,06,17,13,30,22.60
2015,06,17,13,31,22.60
2015,06,17,13,32,22.60
2015,06,17,13,33,22.60
2015,06,17,13,34,22.60
2015,06,17,13,35,22.60
2015,06,17,13,36,22.70
2015,06,17,13,37,22.70
2015,06,17,13,38,22.70
2015,06,17,13,39,22.80
2015,06,17,13,40,22.80
2015,06,17,13,41,22.70
2015,06,17,13,42,22.70
2015,06,17,13,43,22.70
2015,06,17,13,44,22.70
2015,06,17,13,45,22.70
2015,06,17,13,46,22.70
2015,06,17,13,47,22.70
2015,06,17,13,48,22.80
2015,06,17,13,49,22.80
2015,06,17,13,50,22.90
2015,06,17,13,51,23.00
2015,06,17,13,52,23.00
2015,06,17,13,53,23.10
2015,06,17,13,54,23.10
2015,06,17,13,55,23.20
2015,06,17,13,56,23.30
2015,06,17,13,57,23.30
2015,06,17,13,58,23.40
2015,06,17,13,59,23.50
2015,06,17,14,00,23.50
2015,06,17,14,01,23.60
2015,06,17,14,02,23.60
2015,06,17,14,03,23.70
2015,06,17,14,04,23.80
2015,06,17,14,05,23.90
2015,06,17,14,06,23.90
2015,06,17,14,07,24.00
2015,06,17,14,08,24.00
2015,06,17,14,09,24.10
2015,06,17,14,10,24.10
2015,06,17,14,11,24.20
2015,06,17,14,12,24.20
2015,06,17,14,13,24.20
2015,06,17,14,14,24.20
2015,06,17,14,15,24.30
2015,06,17,14,16,24.20
2015,06,17,14,17,24.20
2015,06,17,14,18,24.20
2015,06,17,14,19,24.20
2015,06,17,14,20,24.10
2015,06,17,14,21,24.10
2015,06,17,14,22,24.10
2015,06,17,14,23,24.10
2015,06,17,14,24,24.00
2015,06,17,14,25,24.00
2015,06,17,14,26,24.00
2015,06,17,14,27,24.00
2015,06,17,14,28,23.90
2015,06,17,14,29,23.80
2015,06,17,14,30,23.80
2015,06,17,14,31,23.70
2015,06,17,14,32,23.60
2015,06,17,14,33,23.50
2015,06,17,14,34,23.40
2015,06,17,14,35,23.40
2015,06,17,14,36,23.30
2015,06,17,14,37,23.30
2015,06,17,14,38,23.30
2015,06,17,14,39,23.40
2015,06,17,14,40,23.40
2015,06,17,14,41,23.50
2015,06,17,14,42,23.70
2015,06,17,14,43,23.80
2015,06,17,14,44,23.90
2015,06,17,14,45,24.00
2015,06,17,14,46,24.00
2015,06,17,14,47,24.00
2015,06,17,14,48,24.10
2015,06,17,14,49,24.10
2015,06,17,14,50,24.10
2015,06,17,14,51,24.10
2015,06,17,14,52,24.10
2015,06,17,14,53,24.10
2015,06,17,14,54,24.10
2015,06,17,14,55,24.10
2015,06,17,14,56,24.10
2015,06,17,14,57,24.10
2015,06,17,14,58,24.20
2015,06,17,14,59,24.20
2015,06,17,15,00,24.30
2015,06,17,15,01,24.40
2015,06,17,15,02,24.40
2015,06,17,15,03,24.40
2015,06,17,15,04,24.40
2015,06,17,15,05,24.40
2015,06,17,15,06,24.40
2015,06,17,15,07,24.50
2015,06,17,15,08,24.60
2015,06,17,15,09,24.70
2015,06,17,15,10,24.70
2015,06,17,15,11,24.80
2015,06,17,15,12,24.80
2015,06,17,15,13,24.90
2015,06,17,15,14,24.90
2015,06,17,15,15,24.80
2015,06,17,15,16,24.80
2015,06,17,15,17,24.80
2015,06,17,15,18,24.90
2015,06,17,15,19,25.00
2015,06,17,15,20,25.10
2015,06,17,15,21,25.10
2015,06,17,15,22,25.10
2015,06,17,15,23,25.10
2015,06,17,15,24,25.10
2015,06,17,15,25,25.10
2015,06,17,15,26,25.00
2015,06,17,15,27,24.90
2015,06,17,15,28,24.90
2015,06,17,15,29,24.90
2015,06,17,15,30,24.90
2015,06,17,15,31,24.90
2015,06,17,15,32,24.90
2015,06,17,15,33,25.00
2015,06,17,15,34,25.00
2015,06,17,15,35,24.90
2015,06,17,15,36,25.00
2015,06,17,15,37,25.00
2015,06,17,15,38,25.10
2015,06,17,15,39,25.10
2015,06,17,15,40,25.10
2015,06,17,15,41,25.10
2015,06,17,15,42,25.10
2015,06,17,15,43,25.10
2015,06,17,15,44,25.10
2015,06,17,15,45,25.10
2015,06,17,15,46,25.10
2015,06,17,15,47,25.10
2015,06,17,15,48,25.10
2015,06,17,15,49,25.20
2015,06,17,15,50,25.10
2015,06,17,15,51,25.10
2015,06,17,15,52,25.20
2015,06,17,15,53,25.10
2015,06,17,15,54,25.10
2015,06,17,15,55,25.10
2015,06,17,15,56,25.00
2015,06,17,15,57,24.90
2015,06,17,15,58,24.90
2015,06,17,15,59,24.90
2015,06,17,16,00,24.90
2015,06,17,16,01,24.90
2015,06,17,16,02,24.90
2015,06,17,16,03,24.90
2015,06,17,16,04,25.00
2015,06,17,16,05,25.00
2015,06,17,16,06,25.00
2015,06,17,16,07,25.10
2015,06,17,16,08,25.10
2015,06,17,16,09,25.10
2015,06,17,16,10,25.10
2015,06,17,16,11,25.10
2015,06,17,16,12,25.10
2015,06,17,16,13,25.10
2015,06,17,16,14,25.00
2015,06,17,16,15,25.00
2015,06,17,16,16,24.90
2015,06,17,16,17,24.90
2015,06,17,16,18,24.90
2015,06,17,16,19,24.80
2015,06,17,16,20,24.70
2015,06,17,16,21,24.70
2015,06,17,16,22,24.70
2015,06,17,16,23,24.60
2015,06,17,16,24,24.60
2015,06,17,16,25,24.50
2015,06,17,16,26,24.40
2015,06,17,16,27,24.30
2015,06,17,16,28,24.30
2015,06,17,16,29,24.20
2015,06,17,16,30,24.20
2015,06,17,16,31,24.20
2015,06,17,16,32,24.10
2015,06,17,16,33,24.00
2015,06,17,16,34,24.00
2015,06,17,16,35,23.90
2015,06,17,16,36,23.90
2015,06,17,16,37,23.80
2015,06,17,16,38,23.70
2015,06,17,16,39,23.70
2015,06,17,16,40,23.60
2015,06,17,16,41,23.50
2015,06,17,16,42,23.40
2015,06,17,16,43,23.30
2015,06,17,16,44,23.20
2015,06,17,16,45,23.20
2015,06,17,16,46,23.10
2015,06,17,16,47,23.10
2015,06,17,16,48,23.10
2015,06,17,16,49,23.00
2015,06,17,16,50,22.90
2015,06,17,16,51,22.90
2015,06,17,16,52,22.80
2015,06,17,16,53,22.80
2015,06,17,16,54,22.80
2015,06,17,16,55,22.80
2015,06,17,16,56,22.90
2015,06,17,16,57,22.90
2015,06,17,16,58,22.90
2015,06,17,16,59,23.00
2015,06,17,17,00,23.00
2015,06,17,17,01,23.10
2015,06,17,17,02,23.10
2015,06,17,17,03,23.10
2015,06,17,17,04,23.10
2015,06,17,17,05,23.20
2015,06,17,17,06,23.20
2015,06,17,17,07,23.30
2015,06,17,17,08,23.30
2015,06,17,17,09,23.40
2015,06,17,17,10,23.50
2015,06,17,17,11,23.70
2015,06,17,17,12,23.80
2015,06,17,17,13,23.90
2015,06,17,17,14,24.10
2015,06,17,17,15,24.20
2015,06,17,17,16,24.30
2015,06,17,17,17,24.30
2015,06,17,17,18,24.30
2015,06,17,17,19,24.30